Danbury, CT

12:12 PM EDT on July 27, 2017 (GMT -0400)
Danbury Municipal

Weather History for KDXR - January, 2014

Change the Weather History Date:

Friday, January 3, 2014

  Actual Average Record
Temperature  
Mean Temperature 8 °F -  
Max Temperature 12 °F 37 °F 58 °F (1979)
Min Temperature 0 °F 20 °F -1 °F (1981)
Degree Days  
Heating Degree Days 58    
Moisture  
Dew Point -3 °F    
Average Humidity 64    
Maximum Humidity 79    
Minimum Humidity 46    
Precipitation  
Precipitation 0.04 in - - ()
Sea Level Pressure  
Sea Level Pressure 29.97 in    
Wind  
Wind Speed 10 mph (NNW)    
Max Wind Speed 17 mph    
Max Gust Speed 28 mph    
Visibility 4 miles    
Events Snow    
Averages and records for this station are not official NWS values.
T = Trace of Precipitation, MM = Missing Value Source: NWS Daily Summary

Daily Weather History Graph

Daily Weather History Graph

Search for Another Location

Airport or City:

Trip Planner

Search our weather history database for the weather conditions in past years. The results will help you decide how hot, cold, wet, or windy it might be!

Date:

Astronomy

Jan. 03, 2014 Rise Set
Actual Time 7:20 AM EST 4:37 PM EST
Civil Twilight 6:49 AM EST 5:08 PM EST
Nautical Twilight 6:14 AM EST 5:42 PM EST
Astronomical Twilight 5:40 AM EST 6:16 PM EST
Moon 8:42 AM EST (1/3) 7:45 PM EST (1/3)
Length of Visible Light 10h 19m
Length of Day
9h 16m
Waxing Crescent, 8% of the Moon is Illuminated
Jan 3
Waxing Crescent
Jan 7
First Quarter
Jan 15
Full
Jan 24
Last Quarter
Jan 30
New

Hourly Weather History & Observations

Time (EST) Temp. Windchill Dew Point Humidity Pressure Visibility Wind Dir Wind Speed Gust Speed Precip Events Conditions
12:27 AM 10.4 °F -4.8 °F 5.0 °F 79% 29.71 in 1.0 mi NE 12.7 mph 19.6 mph 0.01 in Snow Light Snow
12:44 AM 10.4 °F -3.3 °F 3.2 °F 73% 29.71 in 0.8 mi NNE 10.4 mph 18.4 mph 0.01 in Snow Light Snow
12:53 AM 10.9 °F -4.1 °F 3.9 °F 73% 29.72 in 0.8 mi NNE 12.7 mph 20.7 mph 0.01 in Snow Light Snow
1:50 AM 10.4 °F -5.4 °F 3.2 °F 73% 29.68 in 1.0 mi NNE 13.8 mph 20.7 mph 0.00 in Snow Light Snow
1:53 AM 10.0 °F -6.5 °F 3.9 °F 76% 29.70 in 1.0 mi NNE 15.0 mph 21.9 mph 0.01 in Snow Light Snow
2:25 AM 10.4 °F -6.0 °F 3.2 °F 73% 29.68 in 1.0 mi North 15.0 mph 23.0 mph 0.00 in Snow Light Snow
2:44 AM 10.4 °F -4.8 °F 5.0 °F 79% 29.69 in 1.0 mi North 12.7 mph 19.6 mph 0.00 in Snow Light Snow
2:51 AM 12.2 °F -1.8 °F 5.0 °F 73% 29.69 in 0.8 mi North 11.5 mph 19.6 mph 0.00 in Snow Light Snow
2:53 AM 12.0 °F -0.4 °F 5.0 °F 73% 29.73 in 0.8 mi NNE 9.2 mph 19.6 mph 0.00 in Snow Light Snow
3:45 AM 6.8 °F -8.6 °F -0.4 °F 72% 29.70 in 1.0 mi NNW 11.5 mph - 0.00 in Snow Light Snow
3:53 AM 7.0 °F -5.7 °F -0.0 °F 73% 29.73 in 1.2 mi NNW 8.1 mph 19.6 mph 0.00 in Snow Light Snow
4:04 AM 6.8 °F -4.8 °F -0.4 °F 72% 29.71 in 1.0 mi NNW 6.9 mph - 0.00 in Snow Light Snow
4:21 AM 6.8 °F -4.8 °F -0.4 °F 72% 29.72 in 1.0 mi NNW 6.9 mph - 0.01 in Snow Light Snow
4:46 AM 6.8 °F -4.8 °F -0.4 °F 72% 29.73 in 0.8 mi North 6.9 mph - 0.01 in Snow Light Snow
4:53 AM 6.1 °F -4.3 °F -0.9 °F 73% 29.76 in 1.0 mi NNW 5.8 mph 16.1 mph 0.01 in Snow Light Snow
5:14 AM 5.0 °F -5.6 °F -0.4 °F 78% 29.75 in 1.2 mi Variable 5.8 mph - 0.00 in Snow Light Snow
5:53 AM 6.1 °F -4.3 °F -2.0 °F 69% 29.80 in 1.2 mi NNW 5.8 mph - 0.01 in Snow Light Snow
6:53 AM 3.9 °F -11.3 °F -2.9 °F 73% 29.86 in 1.2 mi NNW 10.4 mph 19.6 mph 0.00 in Snow Light Snow
7:53 AM 3.9 °F -11.3 °F -4.0 °F 70% 29.92 in 2.0 mi NNW 10.4 mph 17.3 mph 0.00 in Snow Light Snow
8:18 AM 3.2 °F -13.1 °F -5.8 °F 66% 29.92 in 2.5 mi NNW 11.5 mph 18.4 mph 0.00 in Snow Light Snow
8:36 AM 5.0 °F -11.6 °F -2.2 °F 72% 29.93 in 1.8 mi North 12.7 mph 25.3 mph 0.00 in Snow Light Snow
8:53 AM 6.1 °F -9.5 °F -2.9 °F 67% 29.98 in 2.0 mi NNW 11.5 mph 17.3 mph 0.00 in Snow Light Snow
9:18 AM 6.8 °F -7.8 °F -2.2 °F 67% 29.97 in 2.0 mi NNW 10.4 mph - 0.00 in Snow Light Snow
9:46 AM 6.8 °F -9.3 °F -4.0 °F 61% 29.98 in 2.0 mi NNW 12.7 mph 23.0 mph 0.00 in Snow Light Snow
9:53 AM 7.0 °F -9.8 °F -4.0 °F 61% 30.02 in 6.0 mi North 13.8 mph 21.9 mph 0.00 in Snow Blowing Snow
10:53 AM 9.0 °F -3.2 °F -2.9 °F 59% 30.04 in 10.0 mi NNW 8.1 mph 17.3 mph 0.00 in   Overcast
11:53 AM 10.0 °F -1.9 °F -4.0 °F 53% 30.07 in 10.0 mi North 8.1 mph 18.4 mph N/A   Clear
12:53 PM 10.0 °F -7.6 °F -4.0 °F 53% 30.10 in 6.0 mi NW 17.3 mph 27.6 mph N/A Snow Blowing Snow
1:53 PM 10.9 °F -4.1 °F -4.0 °F 51% 30.14 in 9.0 mi NW 12.7 mph 20.7 mph N/A   Clear
2:53 PM 12.0 °F -4.5 °F -4.0 °F 49% 30.20 in 9.0 mi NW 16.1 mph 24.2 mph N/A   Clear
3:53 PM 10.9 °F -3.4 °F -5.1 °F 49% 30.24 in 10.0 mi NNW 11.5 mph 19.6 mph N/A   Clear
4:53 PM 9.0 °F -3.2 °F -6.0 °F 51% 30.28 in 10.0 mi NW 8.1 mph 17.3 mph N/A   Clear
5:53 PM 8.1 °F 1.4 °F -7.1 °F 50% 30.33 in 10.0 mi WNW 3.5 mph - N/A   Clear
6:53 PM 7.0 °F -5.7 °F -9.0 °F 48% 30.39 in 10.0 mi NNW 8.1 mph - N/A   Clear
7:53 PM 6.1 °F -4.3 °F -9.9 °F 48% 30.42 in 10.0 mi WNW 5.8 mph - N/A   Clear
8:53 PM 5.0 °F - -11.9 °F 46% 30.44 in 10.0 mi Calm Calm - N/A   Clear
9:53 PM 3.0 °F -6.4 °F -13.0 °F 47% 30.46 in 10.0 mi West 4.6 mph - N/A   Clear
10:53 PM 3.0 °F - -13.0 °F 47% 30.46 in 10.0 mi Calm Calm - N/A   Clear
11:53 PM -0.9 °F - -11.9 °F 60% 30.46 in 10.0 mi Calm Calm - N/A   Clear